Home   Weather   Salisbury   Past weeks
Flag for United Kingdom

Past Weather in Salisbury, England, United Kingdom — Yesterday and Last 2 Weeks

Now
52 °F

Overcast.


Feels Like: 52 °F
Forecast: 60 / 47 °F
Wind: 2 mph from North

Location: Boscombe Down

Current Time: Oct 24, 2019 at 1:34:18 am

Latest Report: Oct 23, 2019 at 11:50 pm


Visibility: N/A

Pressure: 29.71 "Hg

Humidity: 94%

Dew Point: 50 °F

Location of SalisburyLocation

Past Weather in Salisbury — Graph

°F

Salisbury Temperature Yesterday

Maximum temperature yesterday: 55 °F (at 1:50 pm)
Minimum temperature yesterday: 43 °F (at 4:50 am)
Average temperature yesterday: 50 °F

High & Low Weather Summary for the Past Weeks

 TemperatureHumidityPressure
High61 °F (Oct 10, 1:20 pm)100% (Oct 11, 4:50 am)30.24 "Hg (Oct 11, 4:50 am)
Low39 °F (Oct 20, 1:50 am)55% (Oct 22, 12:50 pm)29.45 "Hg (Oct 18, 2:50 am)
Average52 °F88%29.76 "Hg
* Reported Oct 8 11:50 pm — Oct 23 11:50 pm, Salisbury. Weather by CustomWeather, © 2019

Note: Actual official high and low records may vary slightly from our data, if they occured in-between our weather recording intervals... More about our weather records

Advertising

Salisbury Weather History for the Previous 24 Hours

Scroll right to see more
 ConditionsComfort  
Time TempWeatherWind HumidityBarometerVisibility
11:50 pm
Wed, Oct 23
52 °FOvercast.2 mph94%29.71 "HgN/A
10:50 pm52 °FOvercast.5 mph94%29.71 "HgN/A
9:50 pm52 °FOvercast.5 mph94%29.71 "HgN/A
8:50 pm52 °FPassing clouds.3 mph94%29.74 "HgN/A
7:50 pm52 °FOvercast.2 mph94%29.77 "HgN/A
6:50 pm54 °FPartly cloudy.5 mph88%29.77 "HgN/A
5:50 pm54 °FPartly sunny.6 mph88%29.77 "Hg5 mi
5:20 pm54 °FLight rain. Mostly cloudy.7 mph88%29.80 "Hg5 mi
4:50 pm54 °FPartly sunny.5 mph88%29.80 "Hg5 mi
4:20 pm55 °FPartly sunny.5 mph82%29.80 "HgN/A
3:50 pm55 °FPartly sunny.5 mph82%29.80 "HgN/A
3:20 pm55 °FBroken clouds.5 mph88%29.83 "Hg6 mi
3:02 pm55 °FBroken clouds.5 mph82%29.83 "Hg6 mi
2:50 pm55 °FPartly sunny.5 mph88%29.83 "Hg6 mi
2:20 pm55 °FBroken clouds.7 mph88%29.86 "Hg6 mi
1:50 pm55 °FPartly sunny.8 mph88%29.86 "Hg6 mi
1:20 pm54 °FPartly sunny.8 mph88%29.86 "Hg6 mi
12:50 pm54 °FPartly sunny.10 mph88%29.89 "Hg6 mi
12:20 pm54 °FPartly sunny.8 mph88%29.92 "Hg6 mi
11:50 am52 °FFog.6 mph94%29.92 "Hg6 mi
11:22 am50 °FFog.7 mph100%29.95 "Hg6 mi
10:50 am50 °FFog.7 mph94%29.95 "Hg6 mi
10:20 am48 °FFog.5 mph100%29.98 "Hg6 mi
9:50 am48 °FFog.6 mph100%29.98 "Hg5 mi
9:21 am46 °FFog.5 mph100%29.98 "Hg3 mi
9:10 am46 °FFog.5 mph100%29.98 "Hg3 mi
8:50 am45 °FRain. Fog.5 mph100%29.98 "Hg3 mi
8:20 am45 °FRain. Fog.6 mph100%29.98 "Hg2 mi
7:50 am45 °FFog.5 mph100%30.01 "Hg1 mi
6:50 am45 °FFog.2 mph93%30.01 "Hg0 mi
5:50 am43 °FFog.8 mph100%30.04 "HgN/A
4:50 am43 °FFog.7 mph100%30.04 "HgN/A
3:50 am45 °FClear.7 mph93%30.07 "HgN/A
2:50 am45 °FClear.6 mph100%30.09 "HgN/A
1:50 am45 °FClear.6 mph100%30.09 "HgN/A
Weather by CustomWeather, © 2019

See weather overview